Regional Weather Roundup
Issued by NWS

Home | Current Version | Previous Version | Graphics & Text | Print | Product List | Glossary On
Versions: 1 2 3 4 5 6 7 8 9 10 11 12 13 14 15 16 17 18 19 20 21 22 23 24 25 26 27 28
000
ASUS45 KBOI 291610
RWRID

IDAHO REGIONAL WEATHER ROUNDUP
NATIONAL WEATHER SERVICE BOISE ID
1000 AM MDT FRI JUL 29 2016

NOTE: "FAIR" INDICATES FEW OR NO CLOUDS BELOW 12000 FEET
WITH NO SIGNIFICANT WEATHER AND/OR OBSTRUCTIONS TO VISIBILITY

IDZ012-014-291700-
SOUTHWEST IDAHO


CITY           SKY/WX    TMP DP  RH WIND       PRES   REMARKS
BOISE          SUNNY     80  47  31 CALM      30.00S
CALDWELL       SUNNY     80  51  36 W3        29.99S
MOUNTAIN HOME  SUNNY     85  44  23 NW10      30.00S
$$

IDZ016-017-291700-
SOUTHCENTRAL IDAHO


CITY           SKY/WX    TMP DP  RH WIND       PRES   REMARKS
BURLEY         SUNNY     75  49  39 SW3       30.07S
JEROME         SUNNY     75  43  31 S3        30.08S
TWIN FALLS     SUNNY     83  42  23 NW7       30.08S
$$

IDZ019>023-291700-
SOUTHEAST IDAHO


CITY           SKY/WX    TMP DP  RH WIND       PRES   REMARKS
IDAHO FALLS    SUNNY     70  48  45 W6        30.12S
POCATELLO      SUNNY     78  44  29 W10       30.11S
REXBURG        SUNNY     68  46  45 VRB3      30.12F
$$

IDZ006-010-011-018-031-032-291700-
CENTRAL IDAHO MOUNTAINS


CITY           SKY/WX    TMP DP  RH WIND       PRES   REMARKS
MCCALL         SUNNY     71  46  40 CALM      30.15F
HAILEY         SUNNY     73  39  29 NW9       30.16F
STANLEY          N/A     66  37  34 N3        30.26F
SALMON         SUNNY     70  48  46 CALM      30.10F
CHALLIS        SUNNY     72  37  28 CALM      30.15F
$$

IDZ002-004-006-007-026-291700-
NORTHERN IDAHO


CITY           SKY/WX    TMP DP  RH WIND       PRES   REMARKS
LEWISTON       SUNNY     79  54  41 NE6       29.96F
LOWELL           N/A     69  57  65 CALM      30.01F
COEUR D`ALENE  SUNNY     77  55  47 NE10      29.99S
MULLAN PASS    SUNNY     70  44  39 VRB3      30.23S
$$




USA.gov is the U.S. government's official web portal to all federal, state and local government web resources and services.